UAL1783 KLAX-KBOS

Flight info

Callsign UAL1783
Flight time N/A
Altitude 37000
Route DOTSS2 CLEEE DCT PKE J96 CIM DCT SLN/N0461F390 DCT IRK DCT JOT J146 GIJ J554 JHW Q82 PONCT JFUND2
Aircraft B739/M-SDE2E3FGHIRWXY/LB1

Departure

Time 2026-05-06 23:58
Airport Los Angeles International Airport (KLAX)

Arrival

Time N/A
Airport Boston Logan International Airport (KBOS)
Time Latitude Longitude Altitude Speed Heading
2026-05-06 23:32 33.94117 -118.40027 94 ft 0 kts 95°
2026-05-06 23:46 33.94118 -118.40035 96 ft 2 kts 97°
2026-05-06 23:46 33.94120 -118.40055 94 ft 2 kts 103°
2026-05-06 23:46 33.94126 -118.40073 94 ft 2 kts 129°
2026-05-06 23:47 33.94139 -118.40083 95 ft 1 kts 174°
2026-05-06 23:47 33.94141 -118.40083 94 ft 0 kts 171°
2026-05-06 23:50 33.94131 -118.40082 95 ft 1 kts 173°
2026-05-06 23:50 33.94122 -118.40081 93 ft 1 kts 174°
2026-05-06 23:51 33.94093 -118.40076 95 ft 6 kts 173°
2026-05-06 23:51 33.94053 -118.40070 96 ft 6 kts 172°
2026-05-06 23:51 33.94010 -118.40063 96 ft 8 kts 173°
2026-05-06 23:51 33.93938 -118.40052 98 ft 12 kts 173°
2026-05-06 23:52 33.93883 -118.39983 103 ft 13 kts 100°
2026-05-06 23:52 33.93892 -118.39864 103 ft 15 kts 84°
2026-05-06 23:52 33.93901 -118.39742 103 ft 14 kts 86°
2026-05-06 23:52 33.93912 -118.39628 101 ft 14 kts 81°
2026-05-06 23:53 33.93925 -118.39518 102 ft 13 kts 83°
2026-05-06 23:53 33.93937 -118.39412 101 ft 13 kts 83°
2026-05-06 23:53 33.93947 -118.39308 100 ft 12 kts 84°
2026-05-06 23:53 33.93958 -118.39204 100 ft 15 kts 79°
2026-05-06 23:54 33.93976 -118.39040 101 ft 25 kts 84°
2026-05-06 23:54 33.93998 -118.38809 100 ft 27 kts 81°
2026-05-06 23:54 33.94022 -118.38591 102 ft 26 kts 83°
2026-05-06 23:54 33.94043 -118.38385 102 ft 24 kts 83°
2026-05-06 23:55 33.94064 -118.38194 102 ft 21 kts 83°
2026-05-06 23:55 33.94072 -118.38033 102 ft 13 kts 106°
2026-05-06 23:55 33.93998 -118.38002 108 ft 9 kts 205°
2026-05-06 23:55 33.93986 -118.38026 109 ft 0 kts 260°
2026-05-06 23:57 33.93984 -118.38040 109 ft 15 kts 262°
2026-05-06 23:57 33.93944 -118.38427 109 ft 77 kts 263°
2026-05-06 23:57 33.93855 -118.39293 105 ft 129 kts 263°
2026-05-06 23:57 33.93728 -118.40528 108 ft 168 kts 262°
2026-05-06 23:58 33.93568 -118.42003 420 ft 179 kts 263°
2026-05-06 23:58 33.93405 -118.43449 1170 ft 175 kts 262°
2026-05-06 23:58 33.93260 -118.44947 1709 ft 181 kts 265°
2026-05-06 23:58 33.92846 -118.46427 2022 ft 199 kts 234°
2026-05-06 23:59 33.91925 -118.47768 2181 ft 217 kts 232°
2026-05-06 23:59 33.90953 -118.49232 2442 ft 228 kts 232°
2026-05-06 23:59 33.89916 -118.50726 2808 ft 237 kts 231°
2026-05-06 23:59 33.88800 -118.52315 2996 ft 259 kts 231°
2026-05-07 00:00 33.87614 -118.54003 3475 ft 268 kts 231°
2026-05-07 00:00 33.86219 -118.55490 4037 ft 274 kts 207°
2026-05-07 00:00 33.84363 -118.56000 4601 ft 279 kts 176°
2026-05-07 00:00 33.83081 -118.55773 4917 ft 284 kts 166°
2026-05-07 00:01 33.80523 -118.55052 5858 ft 282 kts 165°
2026-05-07 00:01 33.78623 -118.54509 6368 ft 288 kts 165°
2026-05-07 00:01 33.76632 -118.53955 7036 ft 288 kts 165°
2026-05-07 00:01 33.74686 -118.53424 7565 ft 293 kts 165°
2026-05-07 00:02 33.72696 -118.52886 8195 ft 293 kts 165°
2026-05-07 00:02 33.70775 -118.52096 8704 ft 293 kts 144°
2026-05-07 00:02 33.69339 -118.50415 9290 ft 286 kts 119°
2026-05-07 00:02 33.68511 -118.48277 9896 ft 282 kts 106°
2026-05-07 00:03 33.67865 -118.46032 10322 ft 290 kts 104°
2026-05-07 00:03 33.67223 -118.43736 10440 ft 308 kts 105°
2026-05-07 00:03 33.66520 -118.41278 10584 ft 325 kts 105°
2026-05-07 00:03 33.65807 -118.38840 10709 ft 341 kts 106°
2026-05-07 00:04 33.64993 -118.36087 10833 ft 357 kts 106°
2026-05-07 00:04 33.64373 -118.33161 10919 ft 368 kts 91°
2026-05-07 00:04 33.64367 -118.30050 11077 ft 378 kts 86°
2026-05-07 00:04 33.64407 -118.26869 11412 ft 383 kts 87°
2026-05-07 00:05 33.64437 -118.23656 11862 ft 385 kts 87°
2026-05-07 00:05 33.64454 -118.20430 12289 ft 387 kts 87°
2026-05-07 00:05 33.64461 -118.18325 12564 ft 389 kts 87°
2026-05-07 00:05 33.64466 -118.15064 12950 ft 392 kts 88°
2026-05-07 00:06 33.64467 -118.11786 13366 ft 394 kts 88°
2026-05-07 00:06 33.64465 -118.08480 13776 ft 397 kts 88°
2026-05-07 00:06 33.64462 -118.05205 14128 ft 399 kts 88°
2026-05-07 00:06 33.64458 -118.01822 14511 ft 401 kts 88°
2026-05-07 00:07 33.64453 -117.98510 14880 ft 402 kts 88°
2026-05-07 00:07 33.64448 -117.95148 15252 ft 404 kts 88°
2026-05-07 00:07 33.64441 -117.91765 15593 ft 407 kts 88°
2026-05-07 00:07 33.64434 -117.88354 15952 ft 409 kts 87°
2026-05-07 00:08 33.64426 -117.84942 16316 ft 410 kts 87°
2026-05-07 00:08 33.64417 -117.81506 16666 ft 412 kts 87°
2026-05-07 00:08 33.64559 -117.78076 16974 ft 412 kts 78°
2026-05-07 00:08 33.65164 -117.74720 17340 ft 411 kts 74°
2026-05-07 00:09 33.65855 -117.71385 17671 ft 413 kts 73°
2026-05-07 00:09 33.66549 -117.68067 17968 ft 415 kts 74°
2026-05-07 00:09 33.67237 -117.64696 18286 ft 418 kts 74°
2026-05-07 00:09 33.67914 -117.61295 18533 ft 420 kts 74°
2026-05-07 00:10 33.68580 -117.57880 18845 ft 420 kts 75°
2026-05-07 00:10 33.69016 -117.55618 19061 ft 421 kts 75°
2026-05-07 00:10 33.69676 -117.52173 19283 ft 425 kts 75°
2026-05-07 00:10 33.70335 -117.48707 19557 ft 426 kts 75°
2026-05-07 00:11 33.70994 -117.45239 19843 ft 427 kts 75°
2026-05-07 00:11 33.71660 -117.41738 20130 ft 429 kts 75°
2026-05-07 00:11 33.72323 -117.38247 20398 ft 430 kts 75°
2026-05-07 00:11 33.72991 -117.34728 20624 ft 433 kts 75°
2026-05-07 00:12 33.73659 -117.31197 20876 ft 434 kts 75°
2026-05-07 00:12 33.74329 -117.27655 21127 ft 436 kts 75°
2026-05-07 00:12 33.74991 -117.24098 21380 ft 437 kts 76°
2026-05-07 00:12 33.75254 -117.20433 21572 ft 444 kts 88°
2026-05-07 00:13 33.75135 -117.16715 21829 ft 446 kts 89°
2026-05-07 00:13 33.74992 -117.12986 22055 ft 448 kts 89°
2026-05-07 00:13 33.74868 -117.09239 22268 ft 449 kts 89°
2026-05-07 00:13 33.74772 -117.05484 22510 ft 450 kts 88°
2026-05-07 00:14 33.74697 -117.01942 22707 ft 451 kts 88°
2026-05-07 00:14 33.74620 -116.98164 22918 ft 453 kts 88°
2026-05-07 00:14 33.74541 -116.94379 23134 ft 454 kts 88°
2026-05-07 00:14 33.74458 -116.90577 23340 ft 455 kts 88°
2026-05-07 00:15 33.74373 -116.86771 23550 ft 456 kts 88°
2026-05-07 00:15 33.74287 -116.82943 23720 ft 458 kts 88°
2026-05-07 00:15 33.74199 -116.79111 23872 ft 459 kts 88°
2026-05-07 00:15 33.74112 -116.75285 24075 ft 458 kts 88°
2026-05-07 00:16 33.74021 -116.71461 24235 ft 458 kts 88°
2026-05-07 00:16 33.73929 -116.67620 24358 ft 460 kts 88°
2026-05-07 00:16 33.73839 -116.63781 24531 ft 460 kts 88°
2026-05-07 00:16 33.73746 -116.59976 24694 ft 462 kts 88°
2026-05-07 00:17 33.73648 -116.56070 24885 ft 463 kts 88°
2026-05-07 00:17 33.73550 -116.52203 25166 ft 461 kts 88°